Meath Environmental Platform

Observations for Trim Market St

Time AQI Temp °C Hum % Pres Pa CO μg/m³ H₂S μg/m³ NO μg/m³ NO₂ μg/m³ O₃ μg/m³ SO₂ μg/m³ PM1 μg/m³ PM2.5 μg/m³ PM10 μg/m³
Tuesday 11 August 2026
16:16 3 42.5 16 67,333 0 0 0 21.32 87.92 5.93 0 3.91 4.3
16:14 3 42.4 16 67,288 0 0 0 14.96 82.34 8.1 0.71 3.89 4.28
16:12 3 42.3 16 67,318 0 0 0 13.75 63.97 9.42 0 3.89 4.28
16:08 3 42.3 16 67,308 0 5.17 0 15.09 93.44 8.34 0.71 3.9 4.29
16:07 3 42.3 16 67,300 0 0 0 17.06 104.31 6.65 0.71 4.46 4.91
16:06 3 42.4 16 67,288 0 0 0 14.87 77.78 8.61 0.71 3.9 4.29
16:05 3 42.4 16 67,306 0 0 0 15.59 74.63 6.21 0 3.9 4.29
16:04 3 42.4 16 67,324 0 0 0 17.42 97.46 5.94 0 3.34 3.68
16:02 3 42.3 16 67,320 0 0 0 15.01 76.54 7.45 0 3.9 4.29
16:01 3 42.2 16 67,314 0 0 0 16.63 71.37 6.43 0 3.9 4.29
16:00 3 42.1 16 67,304 0 0.98 0 15.78 103.66 7.18 0.71 4.46 4.91
15:59 3 42 16 67,294 0 0 0 15.74 81.96 6.58 0 3.89 4.28
15:49 3 42.1 16 67,288 0 0 0 15 92.59 7.15 0 3.89 4.28
15:47 3 42.1 16 67,274 0 0 0 18.09 75.5 5.1 0.71 4.46 4.91
15:46 3 42 16 67,257 0 0 0 15.1 72.99 6.4 0.71 4.46 4.91
15:45 3 41.9 16 67,264 0 0 0 16.72 73.2 5.31 0 3.33 3.66
15:44 3 41.7 17 67,276 0 0 0 15.74 62.85 5.25 0 3.32 3.65
15:43 3 41.6 17 67,266 0 4.45 0 22.94 65.17 4.85 0 3.87 4.26
15:42 3 41.5 17 67,226 0 11.02 0 42.42 72.03 4.28 0.71 4.43 4.88
15:41 3 41.4 17 67,204 0 0 0 21.05 63.93 4.84 0 3.31 3.65